Time,TemperatureF,DewpointF,PressureIn,WindDirection,WindDirectionDegrees,WindSpeedMPH,WindSpeedGustMPH,Humidity,HourlyPrecipIn,Conditions,Clouds,dailyrainin,SoftwareType,DateUTC
2013-04-14 00:04:00,61.8,25.6,29.71,South,175,0.0,1.0,25,0.00,,,0.00,VWS V14.01,2013-04-14 07:04:00,
2013-04-14 00:09:00,61.8,25.6,29.71,South,175,0.0,2.0,25,0.00,,,0.00,VWS V14.01,2013-04-14 07:09:00,
2013-04-14 00:14:00,61.9,24.7,29.71,South,175,0.0,5.0,24,0.00,,,0.00,VWS V14.01,2013-04-14 07:14:00,
2013-04-14 00:19:00,61.9,24.7,29.71,South,175,0.0,1.0,24,0.00,,,0.00,VWS V14.01,2013-04-14 07:19:00,
2013-04-14 00:24:00,61.5,24.4,29.71,South,175,0.0,1.0,24,0.00,,,0.00,VWS V14.01,2013-04-14 07:24:00,
2013-04-14 00:29:00,61.0,25.0,29.71,South,175,0.0,1.0,25,0.00,,,0.00,VWS V14.01,2013-04-14 07:29:00,
2013-04-14 00:34:00,60.8,24.8,29.71,South,175,0.0,1.0,25,0.00,,,0.00,VWS V14.01,2013-04-14 07:34:00,
2013-04-14 00:39:00,60.8,24.8,29.71,South,175,0.0,1.0,25,0.00,,,0.00,VWS V14.01,2013-04-14 07:39:00,
2013-04-14 00:44:00,61.0,25.0,29.71,South,175,0.0,1.0,25,0.00,,,0.00,VWS V14.01,2013-04-14 07:44:00,
2013-04-14 00:49:00,61.5,24.4,29.72,South,175,0.0,1.0,24,0.00,,,0.00,VWS V14.01,2013-04-14 07:49:00,
2013-04-14 00:54:00,61.7,24.6,29.71,South,175,0.0,2.0,24,0.00,,,0.00,VWS V14.01,2013-04-14 07:54:00,
2013-04-14 00:59:00,61.6,25.5,29.71,South,175,0.0,1.0,25,0.00,,,0.00,VWS V14.01,2013-04-14 07:59:00,
2013-04-14 01:04:00,61.2,25.1,29.71,South,175,0.0,1.0,25,0.00,,,0.00,VWS V14.01,2013-04-14 08:04:00,
2013-04-14 01:09:00,61.3,24.2,29.71,South,175,0.0,1.0,24,0.00,,,0.00,VWS V14.01,2013-04-14 08:09:00,
2013-04-14 01:14:00,61.5,24.4,29.72,South,175,0.0,1.0,24,0.00,,,0.00,VWS V14.01,2013-04-14 08:14:00,
2013-04-14 01:19:00,61.2,25.1,29.71,South,175,0.0,0.0,25,0.00,,,0.00,VWS V14.01,2013-04-14 08:19:00,
2013-04-14 01:24:00,61.1,25.0,29.71,South,175,0.0,1.0,25,0.00,,,0.00,VWS V14.01,2013-04-14 08:24:00,
2013-04-14 01:30:00,60.8,24.8,29.71,South,175,0.0,1.0,25,0.00,,,0.00,VWS V14.01,2013-04-14 08:30:00,
2013-04-14 01:35:00,60.3,25.3,29.72,South,175,0.0,1.0,26,0.00,,,0.00,VWS V14.01,2013-04-14 08:35:00,
2013-04-14 01:40:00,60.2,25.2,29.72,South,175,0.0,0.0,26,0.00,,,0.00,VWS V14.01,2013-04-14 08:40:00,
2013-04-14 01:45:00,60.5,25.5,29.71,South,175,0.0,0.0,26,0.00,,,0.00,VWS V14.01,2013-04-14 08:45:00,
2013-04-14 01:50:00,60.4,25.4,29.72,South,175,0.0,0.0,26,0.00,,,0.00,VWS V14.01,2013-04-14 08:50:00,
2013-04-14 01:55:00,60.2,26.1,29.71,South,175,0.0,0.0,27,0.00,,,0.00,VWS V14.01,2013-04-14 08:55:00,
2013-04-14 02:00:00,59.8,24.9,29.71,South,175,0.0,0.0,26,0.00,,,0.00,VWS V14.01,2013-04-14 09:00:00,
2013-04-14 02:05:00,59.7,25.7,29.71,South,175,0.0,0.0,27,0.00,,,0.00,VWS V14.01,2013-04-14 09:05:00,
2013-04-14 02:10:00,59.3,26.2,29.71,South,175,0.0,1.0,28,0.00,,,0.00,VWS V14.01,2013-04-14 09:10:00,
2013-04-14 02:15:00,58.3,26.2,29.71,South,175,0.0,1.0,29,0.00,,,0.00,VWS V14.01,2013-04-14 09:15:00,
2013-04-14 02:20:00,58.2,25.3,29.71,South,175,1.0,2.0,28,0.00,,,0.00,VWS V14.01,2013-04-14 09:20:00,
2013-04-14 02:25:00,59.5,25.5,29.71,South,175,0.0,4.0,27,0.00,,,0.00,VWS V14.01,2013-04-14 09:25:00,
2013-04-14 02:30:00,58.5,25.5,29.71,South,175,0.0,0.0,28,0.00,,,0.00,VWS V14.01,2013-04-14 09:30:00,
2013-04-14 02:35:00,58.2,26.1,29.71,South,175,0.0,1.0,29,0.00,,,0.00,VWS V14.01,2013-04-14 09:35:00,
2013-04-14 02:40:00,57.7,25.7,29.71,South,175,2.0,2.0,29,0.00,,,0.00,VWS V14.01,2013-04-14 09:40:00,
2013-04-14 02:45:00,57.3,26.2,29.71,South,175,0.0,0.0,30,0.00,,,0.00,VWS V14.01,2013-04-14 09:45:00,
2013-04-14 02:50:00,57.8,25.8,29.71,South,175,0.0,1.0,29,0.00,,,0.00,VWS V14.01,2013-04-14 09:50:00,
2013-04-14 02:55:00,58.1,26.0,29.71,South,175,0.0,1.0,29,0.00,,,0.00,VWS V14.01,2013-04-14 09:55:00,
2013-04-14 03:00:00,58.1,26.0,29.71,South,175,0.0,2.0,29,0.00,,,0.00,VWS V14.01,2013-04-14 10:00:00,
2013-04-14 03:05:00,58.2,26.1,29.71,South,175,0.0,1.0,29,0.00,,,0.00,VWS V14.01,2013-04-14 10:05:00,
2013-04-14 03:10:00,58.7,25.7,29.71,South,175,0.0,1.0,28,0.00,,,0.00,VWS V14.01,2013-04-14 10:10:00,
2013-04-14 03:15:00,58.4,25.5,29.71,South,175,0.0,1.0,28,0.00,,,0.00,VWS V14.01,2013-04-14 10:15:00,
2013-04-14 03:20:00,58.1,25.2,29.71,South,175,0.0,2.0,28,0.00,,,0.00,VWS V14.01,2013-04-14 10:20:00,
2013-04-14 03:25:00,58.0,26.0,29.71,South,175,0.0,2.0,29,0.00,,,0.00,VWS V14.01,2013-04-14 10:25:00,
2013-04-14 03:30:00,57.6,25.6,29.71,South,175,2.0,4.0,29,0.00,,,0.00,VWS V14.01,2013-04-14 10:30:00,
2013-04-14 03:35:00,57.5,25.5,29.70,South,175,0.0,4.0,29,0.00,,,0.00,VWS V14.01,2013-04-14 10:35:00,
2013-04-14 03:40:00,57.4,25.4,29.70,South,175,0.0,2.0,29,0.00,,,0.00,VWS V14.01,2013-04-14 10:40:00,
2013-04-14 03:45:00,57.2,26.1,29.70,South,175,1.0,4.0,30,0.00,,,0.00,VWS V14.01,2013-04-14 10:45:00,
2013-04-14 03:50:00,57.3,25.3,29.70,South,175,1.0,2.0,29,0.00,,,0.00,VWS V14.01,2013-04-14 10:50:00,
2013-04-14 03:55:00,57.2,25.2,29.70,South,175,0.0,4.0,29,0.00,,,0.00,VWS V14.01,2013-04-14 10:55:00,
2013-04-14 04:00:00,57.3,26.2,29.70,South,175,1.0,1.0,30,0.00,,,0.00,VWS V14.01,2013-04-14 11:00:00,
2013-04-14 04:05:00,57.2,26.1,29.70,South,175,0.0,1.0,30,0.00,,,0.00,VWS V14.01,2013-04-14 11:05:00,
2013-04-14 04:10:00,57.2,26.1,29.70,South,175,0.0,0.0,30,0.00,,,0.00,VWS V14.01,2013-04-14 11:10:00,
2013-04-14 04:15:00,57.3,26.2,29.70,South,175,0.0,1.0,30,0.00,,,0.00,VWS V14.01,2013-04-14 11:15:00,
2013-04-14 04:20:00,57.1,26.8,29.70,South,175,0.0,4.0,31,0.00,,,0.00,VWS V14.01,2013-04-14 11:20:00,
2013-04-14 04:25:00,56.9,27.4,29.70,South,175,0.0,2.0,32,0.00,,,0.00,VWS V14.01,2013-04-14 11:25:00,
2013-04-14 04:30:00,56.7,27.2,29.70,South,175,1.0,4.0,32,0.00,,,0.00,VWS V14.01,2013-04-14 11:30:00,
2013-04-14 04:35:00,56.3,26.8,29.70,South,175,1.0,5.0,32,0.00,,,0.00,VWS V14.01,2013-04-14 11:35:00,
2013-04-14 04:40:00,56.2,27.5,29.70,South,180,4.0,5.0,33,0.00,,,0.00,VWS V14.01,2013-04-14 11:40:00,
2013-04-14 04:45:00,56.6,27.9,29.70,SSW,192,2.0,5.0,33,0.00,,,0.00,VWS V14.01,2013-04-14 11:45:00,
2013-04-14 04:50:00,56.5,27.8,29.70,SSW,192,1.0,4.0,33,0.00,,,0.00,VWS V14.01,2013-04-14 11:50:00,
2013-04-14 04:55:00,56.5,27.8,29.70,SSW,192,1.0,3.0,33,0.00,,,0.00,VWS V14.01,2013-04-14 11:55:00,
2013-04-14 05:00:00,56.5,27.8,29.70,SSW,192,0.0,3.0,33,0.00,,,0.00,VWS V14.01,2013-04-14 12:00:00,
2013-04-14 05:05:00,56.5,27.8,29.69,SSW,192,0.0,3.0,33,0.00,,,0.00,VWS V14.01,2013-04-14 12:05:00,
2013-04-14 05:10:00,56.6,27.9,29.70,SSW,193,0.0,5.0,33,0.00,,,0.00,VWS V14.01,2013-04-14 12:10:00,
2013-04-14 05:15:00,56.6,28.6,29.69,SSW,193,3.0,3.0,34,0.00,,,0.00,VWS V14.01,2013-04-14 12:15:00,
2013-04-14 05:20:00,56.7,27.9,29.70,SSW,196,2.0,5.0,33,0.00,,,0.00,VWS V14.01,2013-04-14 12:20:00,
2013-04-14 05:25:00,56.7,27.9,29.70,SSW,198,3.0,5.0,33,0.00,,,0.00,VWS V14.01,2013-04-14 12:25:00,
2013-04-14 05:30:00,56.8,28.8,29.70,SSW,199,4.0,5.0,34,0.00,,,0.00,VWS V14.01,2013-04-14 12:30:00,
2013-04-14 05:35:00,56.7,28.7,29.70,SSW,200,3.0,5.0,34,0.00,,,0.00,VWS V14.01,2013-04-14 12:35:00,
2013-04-14 05:40:00,56.7,28.7,29.70,SSW,200,1.0,5.0,34,0.00,,,0.00,VWS V14.01,2013-04-14 12:40:00,
2013-04-14 05:45:00,56.8,28.8,29.70,SSW,201,3.0,5.0,34,0.00,,,0.00,VWS V14.01,2013-04-14 12:45:00,
2013-04-14 05:50:00,56.9,28.1,29.70,SSW,213,3.0,6.0,33,0.00,,,0.00,VWS V14.01,2013-04-14 12:50:00,
2013-04-14 05:55:00,57.2,28.4,29.70,SSW,212,3.0,6.0,33,0.00,,,0.00,VWS V14.01,2013-04-14 12:55:00,
2013-04-14 06:00:00,57.4,28.5,29.70,SSW,213,4.0,7.0,33,0.00,,,0.00,VWS V14.01,2013-04-14 13:00:00,
2013-04-14 06:05:00,57.5,28.6,29.70,SSW,213,0.0,5.0,33,0.00,,,0.00,VWS V14.01,2013-04-14 13:05:00,
2013-04-14 06:10:00,57.5,28.6,29.70,SSW,213,3.0,6.0,33,0.00,,,0.00,VWS V14.01,2013-04-14 13:10:00,
2013-04-14 06:15:00,57.5,28.6,29.70,SSW,213,4.0,5.0,33,0.00,,,0.00,VWS V14.01,2013-04-14 13:15:00,
2013-04-14 06:20:00,57.6,28.7,29.70,SSW,213,2.0,6.0,33,0.00,,,0.00,VWS V14.01,2013-04-14 13:20:00,
2013-04-14 06:25:00,57.8,28.9,29.70,SSW,213,0.0,4.0,33,0.00,,,0.00,VWS V14.01,2013-04-14 13:25:00,
2013-04-14 06:30:00,57.8,29.6,29.70,SSW,213,2.0,3.0,34,0.00,,,0.00,VWS V14.01,2013-04-14 13:30:00,
2013-04-14 06:35:00,58.4,29.4,29.70,SW,219,2.0,6.0,33,0.00,,,0.00,VWS V14.01,2013-04-14 13:35:00,
2013-04-14 06:40:00,59.0,30.0,29.71,SW,219,5.0,5.0,33,0.00,,,0.00,VWS V14.01,2013-04-14 13:40:00,
2013-04-14 06:45:00,59.7,30.6,29.71,SW,223,2.0,7.0,33,0.00,,,0.00,VWS V14.01,2013-04-14 13:45:00,
2013-04-14 06:50:00,60.2,31.0,29.71,SW,227,2.0,7.0,33,0.00,,,0.00,VWS V14.01,2013-04-14 13:50:00,
2013-04-14 06:55:00,60.9,31.6,29.70,SW,216,6.0,8.0,33,0.00,,,0.00,VWS V14.01,2013-04-14 13:55:00,
2013-04-14 07:00:00,62.0,31.8,29.70,SSW,196,4.0,8.0,32,0.00,,,0.00,VWS V14.01,2013-04-14 14:00:00,
2013-04-14 07:05:00,63.0,31.9,29.70,South,189,3.0,10.0,31,0.00,,,0.00,VWS V14.01,2013-04-14 14:05:00,
2013-04-14 07:10:00,63.8,32.6,29.70,SSW,212,5.0,11.0,31,0.00,,,0.00,VWS V14.01,2013-04-14 14:10:00,
2013-04-14 07:15:00,64.1,32.9,29.70,South,190,7.0,13.0,31,0.00,,,0.00,VWS V14.01,2013-04-14 14:15:00,
2013-04-14 07:20:00,64.4,33.1,29.70,SW,215,5.0,13.0,31,0.00,,,0.00,VWS V14.01,2013-04-14 14:20:00,
2013-04-14 07:25:00,65.0,33.7,29.70,SSW,198,9.0,14.0,31,0.00,,,0.00,VWS V14.01,2013-04-14 14:25:00,
2013-04-14 07:30:00,65.3,33.9,29.70,SSW,194,14.0,15.0,31,0.00,,,0.00,VWS V14.01,2013-04-14 14:30:00,
2013-04-14 07:35:00,65.6,35.0,29.70,SW,227,7.0,17.0,32,0.00,,,0.00,VWS V14.01,2013-04-14 14:35:00,
2013-04-14 07:40:00,65.9,34.4,29.70,South,188,8.0,14.0,31,0.00,,,0.00,VWS V14.01,2013-04-14 14:40:00,
2013-04-14 07:45:00,66.3,34.8,29.70,SSW,210,6.0,15.0,31,0.00,,,0.00,VWS V14.01,2013-04-14 14:45:00,
2013-04-14 07:50:00,66.5,35.0,29.70,South,190,9.0,15.0,31,0.00,,,0.00,VWS V14.01,2013-04-14 14:50:00,
2013-04-14 07:55:00,66.7,35.1,29.70,South,190,8.0,16.0,31,0.00,,,0.00,VWS V14.01,2013-04-14 14:55:00,
2013-04-14 08:00:00,67.0,35.4,29.70,SSW,196,13.0,16.0,31,0.00,,,0.00,VWS V14.01,2013-04-14 15:00:00,
2013-04-14 08:05:00,67.5,35.0,29.70,South,177,6.0,17.0,30,0.00,,,0.00,VWS V14.01,2013-04-14 15:05:00,
2013-04-14 08:10:00,67.9,35.3,29.70,SSW,209,8.0,16.0,30,0.00,,,0.00,VWS V14.01,2013-04-14 15:10:00,
2013-04-14 08:15:00,67.8,35.3,29.69,SSW,196,6.0,19.0,30,0.00,,,0.00,VWS V14.01,2013-04-14 15:15:00,
2013-04-14 08:20:00,68.1,34.7,29.70,South,188,9.0,17.0,29,0.00,,,0.00,VWS V14.01,2013-04-14 15:20:00,
2013-04-14 08:25:00,68.7,35.2,29.69,SSE,157,5.0,14.0,29,0.00,,,0.00,VWS V14.01,2013-04-14 15:25:00,
2013-04-14 08:30:00,69.0,35.5,29.69,South,191,7.0,14.0,29,0.00,,,0.00,VWS V14.01,2013-04-14 15:30:00,
2013-04-14 08:35:00,69.2,34.7,29.69,South,186,7.0,15.0,28,0.00,,,0.00,VWS V14.01,2013-04-14 15:35:00,
2013-04-14 08:40:00,69.5,35.0,29.69,SSW,197,16.0,17.0,28,0.00,,,0.00,VWS V14.01,2013-04-14 15:40:00,
2013-04-14 08:45:00,69.9,34.4,29.69,SSW,209,6.0,15.0,27,0.00,,,0.00,VWS V14.01,2013-04-14 15:45:00,
2013-04-14 08:50:00,70.2,34.7,29.69,SSW,197,5.0,16.0,27,0.00,,,0.00,VWS V14.01,2013-04-14 15:50:00,
2013-04-14 08:55:00,71.1,35.5,29.69,SSW,198,8.0,12.0,27,0.00,,,0.00,VWS V14.01,2013-04-14 15:55:00,
2013-04-14 09:01:00,70.6,35.0,29.70,South,184,8.0,15.0,27,0.00,,,0.00,VWS V14.01,2013-04-14 16:01:00,
2013-04-14 09:06:00,71.2,34.6,29.69,SSW,195,5.0,12.0,26,0.00,,,0.00,VWS V14.01,2013-04-14 16:06:00,
2013-04-14 09:11:00,71.3,34.7,29.69,SSW,197,9.0,15.0,26,0.00,,,0.00,VWS V14.01,2013-04-14 16:11:00,
2013-04-14 09:16:00,71.4,34.8,29.69,SSW,199,10.0,16.0,26,0.00,,,0.00,VWS V14.01,2013-04-14 16:16:00,
2013-04-14 09:21:00,71.3,34.7,29.69,SSW,207,8.0,16.0,26,0.00,,,0.00,VWS V14.01,2013-04-14 16:21:00,
2013-04-14 09:26:00,72.3,35.5,29.70,SW,222,8.0,14.0,26,0.00,,,0.00,VWS V14.01,2013-04-14 16:26:00,
2013-04-14 09:31:00,72.4,34.6,29.70,SSW,200,3.0,15.0,25,0.00,,,0.00,VWS V14.01,2013-04-14 16:31:00,
2013-04-14 09:36:00,72.1,34.4,29.70,SSW,206,5.0,18.0,25,0.00,,,0.00,VWS V14.01,2013-04-14 16:36:00,
2013-04-14 09:41:00,72.6,34.8,29.70,South,184,12.0,13.0,25,0.00,,,0.00,VWS V14.01,2013-04-14 16:41:00,
2013-04-14 09:46:00,72.5,34.7,29.71,SSW,201,6.0,16.0,25,0.00,,,0.00,VWS V14.01,2013-04-14 16:46:00,
2013-04-14 09:51:00,73.1,34.2,29.70,South,180,2.0,12.0,24,0.00,,,0.00,VWS V14.01,2013-04-14 16:51:00,
2013-04-14 09:56:00,73.0,35.1,29.71,SSW,211,6.0,17.0,25,0.00,,,0.00,VWS V14.01,2013-04-14 16:56:00,
2013-04-14 10:01:00,73.5,34.5,29.71,South,189,5.0,12.0,24,0.00,,,0.00,VWS V14.01,2013-04-14 17:01:00,
2013-04-14 10:06:00,73.7,34.7,29.71,SSW,198,9.0,10.0,24,0.00,,,0.00,VWS V14.01,2013-04-14 17:06:00,
2013-04-14 10:11:00,74.3,35.2,29.71,SSW,202,8.0,11.0,24,0.00,,,0.00,VWS V14.01,2013-04-14 17:11:00,
2013-04-14 10:16:00,74.7,35.5,29.71,SSW,192,7.0,11.0,24,0.00,,,0.00,VWS V14.01,2013-04-14 17:16:00,
2013-04-14 10:26:00,74.4,35.3,29.70,SW,221,8.0,13.0,24,0.00,,,0.00,VWS V14.01,2013-04-14 17:26:00,
2013-04-14 10:31:00,74.9,35.7,29.70,SW,225,5.0,12.0,24,0.00,,,0.00,VWS V14.01,2013-04-14 17:31:00,
2013-04-14 10:36:00,75.8,36.5,29.70,SSW,208,12.0,15.0,24,0.00,,,0.00,VWS V14.01,2013-04-14 17:36:00,
2013-04-14 10:41:00,75.8,35.4,29.70,SSW,213,3.0,15.0,23,0.00,,,0.00,VWS V14.01,2013-04-14 17:41:00,
2013-04-14 10:46:00,76.2,34.6,29.70,SW,219,2.0,14.0,22,0.00,,,0.00,VWS V14.01,2013-04-14 17:46:00,
2013-04-14 10:51:00,76.9,35.2,29.70,SSW,199,4.0,12.0,22,0.00,,,0.00,VWS V14.01,2013-04-14 17:51:00,
2013-04-14 10:56:00,77.2,34.3,29.69,West,271,3.0,15.0,21,0.00,,,0.00,VWS V14.01,2013-04-14 17:56:00,
2013-04-14 11:01:00,77.4,34.5,29.69,SW,217,2.0,10.0,21,0.00,,,0.00,VWS V14.01,2013-04-14 18:01:00,
2013-04-14 11:06:00,77.2,33.1,29.69,SSW,200,5.0,8.0,20,0.00,,,0.00,VWS V14.01,2013-04-14 18:06:00,
2013-04-14 11:11:00,77.9,32.4,29.69,WSW,244,6.0,11.0,19,0.00,,,0.00,VWS V14.01,2013-04-14 18:11:00,
2013-04-14 11:21:00,78.5,32.8,29.69,SSW,203,8.0,16.0,19,0.00,,,0.00,VWS V14.01,2013-04-14 18:21:00,
2013-04-14 11:26:00,79.2,30.7,29.69,SW,223,7.0,13.0,17,0.00,,,0.00,VWS V14.01,2013-04-14 18:26:00,
2013-04-14 11:31:00,79.0,31.9,29.69,South,187,4.0,13.0,18,0.00,,,0.00,VWS V14.01,2013-04-14 18:31:00,
2013-04-14 11:36:00,78.0,31.1,29.68,South,190,4.0,15.0,18,0.00,,,0.00,VWS V14.01,2013-04-14 18:36:00,
2013-04-14 11:42:00,78.3,31.4,29.68,South,183,3.0,11.0,18,0.00,,,0.00,VWS V14.01,2013-04-14 18:42:00,
2013-04-14 11:47:00,79.5,30.9,29.68,SSW,193,6.0,14.0,17,0.00,,,0.00,VWS V14.01,2013-04-14 18:47:00,
2013-04-14 11:52:00,79.2,29.2,29.68,SSW,195,8.0,10.0,16,0.00,,,0.00,VWS V14.01,2013-04-14 18:52:00,
2013-04-14 11:57:00,79.6,29.5,29.68,SW,222,6.0,18.0,16,0.00,,,0.00,VWS V14.01,2013-04-14 18:57:00,
2013-04-14 12:02:00,79.6,29.5,29.67,SSW,206,6.0,12.0,16,0.00,,,0.00,VWS V14.01,2013-04-14 19:02:00,
2013-04-14 12:07:00,79.6,29.5,29.67,South,189,7.0,12.0,16,0.00,,,0.00,VWS V14.01,2013-04-14 19:07:00,
2013-04-14 12:12:00,79.4,29.3,29.67,SW,235,0.0,6.0,16,0.00,,,0.00,VWS V14.01,2013-04-14 19:12:00,
2013-04-14 12:17:00,80.5,31.7,29.67,SSW,207,5.0,15.0,17,0.00,,,0.00,VWS V14.01,2013-04-14 19:17:00,
2013-04-14 12:22:00,80.4,31.6,29.67,SSW,208,3.0,9.0,17,0.00,,,0.00,VWS V14.01,2013-04-14 19:22:00,
2013-04-14 12:27:00,80.6,30.3,29.67,WSW,238,3.0,4.0,16,0.00,,,0.00,VWS V14.01,2013-04-14 19:27:00,
2013-04-14 12:32:00,80.5,30.2,29.67,WSW,240,7.0,11.0,16,0.00,,,0.00,VWS V14.01,2013-04-14 19:32:00,
2013-04-14 12:37:00,80.5,30.2,29.66,SSW,193,8.0,15.0,16,0.00,,,0.00,VWS V14.01,2013-04-14 19:37:00,
2013-04-14 12:42:00,81.1,30.7,29.66,SW,225,7.0,11.0,16,0.00,,,0.00,VWS V14.01,2013-04-14 19:42:00,
2013-04-14 12:47:00,81.8,29.7,29.67,WSW,242,6.0,12.0,15,0.00,,,0.00,VWS V14.01,2013-04-14 19:47:00,
2013-04-14 12:52:00,80.7,28.8,29.66,SW,219,1.0,7.0,15,0.00,,,0.00,VWS V14.01,2013-04-14 19:52:00,
2013-04-14 12:57:00,80.4,30.1,29.66,SSW,192,9.0,16.0,16,0.00,,,0.00,VWS V14.01,2013-04-14 19:57:00,
2013-04-14 13:02:00,81.3,30.9,29.66,SW,223,10.0,10.0,16,0.00,,,0.00,VWS V14.01,2013-04-14 20:02:00,
2013-04-14 13:07:00,81.3,29.3,29.66,SSW,198,1.0,12.0,15,0.00,,,0.00,VWS V14.01,2013-04-14 20:07:00,
2013-04-14 13:12:00,81.8,29.7,29.65,SW,228,9.0,10.0,15,0.00,,,0.00,VWS V14.01,2013-04-14 20:12:00,
2013-04-14 13:17:00,81.6,29.5,29.65,SSW,212,6.0,13.0,15,0.00,,,0.00,VWS V14.01,2013-04-14 20:17:00,
2013-04-14 13:22:00,82.3,28.4,29.65,SSW,203,3.0,8.0,14,0.00,,,0.00,VWS V14.01,2013-04-14 20:22:00,
2013-04-14 13:27:00,82.7,28.7,29.65,SW,221,4.0,11.0,14,0.00,,,0.00,VWS V14.01,2013-04-14 20:27:00,
2013-04-14 13:32:00,82.2,28.3,29.65,South,190,11.0,11.0,14,0.00,,,0.00,VWS V14.01,2013-04-14 20:32:00,
2013-04-14 13:37:00,81.7,27.9,29.64,West,269,6.0,10.0,14,0.00,,,0.00,VWS V14.01,2013-04-14 20:37:00,
2013-04-14 13:42:00,81.5,27.8,29.64,SW,215,10.0,17.0,14,0.00,,,0.00,VWS V14.01,2013-04-14 20:42:00,
2013-04-14 13:47:00,82.2,28.3,29.64,SW,225,11.0,12.0,14,0.00,,,0.00,VWS V14.01,2013-04-14 20:47:00,
2013-04-14 13:52:00,82.6,26.8,29.64,SSW,203,6.0,8.0,13,0.00,,,0.00,VWS V14.01,2013-04-14 20:52:00,
2013-04-14 13:57:00,82.7,26.9,29.64,South,191,4.0,7.0,13,0.00,,,0.00,VWS V14.01,2013-04-14 20:57:00,
2013-04-14 14:02:00,81.9,26.3,29.63,SW,223,9.0,9.0,13,0.00,,,0.00,VWS V14.01,2013-04-14 21:02:00,
2013-04-14 14:07:00,83.3,25.4,29.63,SW,214,15.0,15.0,12,0.00,,,0.00,VWS V14.01,2013-04-14 21:07:00,
2013-04-14 14:13:00,83.3,23.4,29.63,SW,227,8.0,9.0,11,0.00,,,0.00,VWS V14.01,2013-04-14 21:13:00,
2013-04-14 14:18:00,83.1,23.2,29.63,SW,218,15.0,15.0,11,0.00,,,0.00,VWS V14.01,2013-04-14 21:18:00,
2013-04-14 14:23:00,83.2,23.3,29.63,SSW,213,10.0,16.0,11,0.00,,,0.00,VWS V14.01,2013-04-14 21:23:00,
2013-04-14 14:28:00,83.5,25.6,29.62,SW,215,7.0,14.0,12,0.00,,,0.00,VWS V14.01,2013-04-14 21:28:00,
2013-04-14 14:33:00,83.4,23.4,29.62,West,270,3.0,9.0,11,0.00,,,0.00,VWS V14.01,2013-04-14 21:33:00,
2013-04-14 14:38:00,83.3,25.4,29.62,SSW,205,8.0,12.0,12,0.00,,,0.00,VWS V14.01,2013-04-14 21:38:00,
2013-04-14 14:43:00,83.3,23.4,29.62,SSW,210,9.0,13.0,11,0.00,,,0.00,VWS V14.01,2013-04-14 21:43:00,
2013-04-14 14:48:00,82.8,23.0,29.61,SW,215,11.0,19.0,11,0.00,,,0.00,VWS V14.01,2013-04-14 21:48:00,
2013-04-14 14:53:00,82.8,23.0,29.61,West,259,5.0,18.0,11,0.00,,,0.00,VWS V14.01,2013-04-14 21:53:00,
2013-04-14 14:58:00,83.2,23.3,29.61,South,182,5.0,12.0,11,0.00,,,0.00,VWS V14.01,2013-04-14 21:58:00,
2013-04-14 15:03:00,83.8,21.5,29.61,SSW,192,8.0,17.0,10,0.00,,,0.00,VWS V14.01,2013-04-14 22:03:00,
2013-04-14 15:08:00,83.4,23.4,29.61,WSW,254,2.0,10.0,11,0.00,,,0.00,VWS V14.01,2013-04-14 22:08:00,
2013-04-14 15:13:00,83.0,23.1,29.61,SSW,212,5.0,13.0,11,0.00,,,0.00,VWS V14.01,2013-04-14 22:13:00,
2013-04-14 15:18:00,82.9,23.0,29.61,South,187,6.0,8.0,11,0.00,,,0.00,VWS V14.01,2013-04-14 22:18:00,
2013-04-14 15:23:00,83.8,23.8,29.61,SSW,213,6.0,14.0,11,0.00,,,0.00,VWS V14.01,2013-04-14 22:23:00,
2013-04-14 15:28:00,83.4,23.4,29.60,SSW,208,7.0,12.0,11,0.00,,,0.00,VWS V14.01,2013-04-14 22:28:00,
2013-04-14 15:33:00,83.2,23.3,29.60,WSW,250,5.0,7.0,11,0.00,,,0.00,VWS V14.01,2013-04-14 22:33:00,
2013-04-14 15:38:00,83.5,23.5,29.60,SW,217,7.0,13.0,11,0.00,,,0.00,VWS V14.01,2013-04-14 22:38:00,
2013-04-14 15:43:00,82.4,22.7,29.60,SW,229,5.0,11.0,11,0.00,,,0.00,VWS V14.01,2013-04-14 22:43:00,
2013-04-14 15:48:00,82.7,22.9,29.60,SW,229,3.0,9.0,11,0.00,,,0.00,VWS V14.01,2013-04-14 22:48:00,
2013-04-14 15:56:00,83.0,23.1,29.59,West,265,12.0,15.0,11,0.00,,,0.00,VWS V14.01,2013-04-14 22:56:00,
2013-04-14 16:03:00,82.4,22.7,29.60,SW,214,5.0,12.0,11,0.00,,,0.00,VWS V14.01,2013-04-14 23:03:00,
2013-04-14 16:08:00,82.6,22.8,29.60,SW,234,9.0,20.0,11,0.00,,,0.00,VWS V14.01,2013-04-14 23:08:00,
2013-04-14 16:13:00,82.5,22.8,29.59,SW,218,4.0,7.0,11,0.00,,,0.00,VWS V14.01,2013-04-14 23:13:00,
2013-04-14 16:18:00,82.2,22.5,29.60,SW,214,6.0,19.0,11,0.00,,,0.00,VWS V14.01,2013-04-14 23:18:00,
2013-04-14 16:23:00,82.2,22.5,29.60,SW,225,7.0,16.0,11,0.00,,,0.00,VWS V14.01,2013-04-14 23:23:00,
2013-04-14 16:28:00,82.0,22.4,29.59,SSW,196,6.0,13.0,11,0.00,,,0.00,VWS V14.01,2013-04-14 23:28:00,
2013-04-14 16:33:00,82.1,24.5,29.59,SW,218,4.0,12.0,12,0.00,,,0.00,VWS V14.01,2013-04-14 23:33:00,
2013-04-14 16:38:00,82.2,24.6,29.59,SW,215,8.0,11.0,12,0.00,,,0.00,VWS V14.01,2013-04-14 23:38:00,
2013-04-14 16:43:00,81.6,22.0,29.58,SW,220,4.0,14.0,11,0.00,,,0.00,VWS V14.01,2013-04-14 23:43:00,
2013-04-14 16:48:00,81.8,24.3,29.59,SW,221,8.0,14.0,12,0.00,,,0.00,VWS V14.01,2013-04-14 23:48:00,
2013-04-14 16:53:00,81.4,24.0,29.58,SSW,199,6.0,10.0,12,0.00,,,0.00,VWS V14.01,2013-04-14 23:53:00,
2013-04-14 16:58:00,81.3,21.8,29.59,SSW,208,17.0,17.0,11,0.00,,,0.00,VWS V14.01,2013-04-14 23:58:00,
2013-04-14 17:03:00,80.9,21.5,29.59,SW,220,8.0,14.0,11,0.00,,,0.00,VWS V14.01,2013-04-15 00:03:00,
2013-04-14 17:08:00,81.2,23.8,29.59,SW,217,11.0,14.0,12,0.00,,,0.00,VWS V14.01,2013-04-15 00:08:00,
2013-04-14 17:13:00,80.7,23.4,29.58,West,275,8.0,15.0,12,0.00,,,0.00,VWS V14.01,2013-04-15 00:13:00,
2013-04-14 17:18:00,80.7,23.4,29.58,SSW,205,3.0,17.0,12,0.00,,,0.00,VWS V14.01,2013-04-15 00:18:00,
2013-04-14 17:23:00,80.8,23.5,29.58,SSW,212,9.0,13.0,12,0.00,,,0.00,VWS V14.01,2013-04-15 00:23:00,
2013-04-14 17:28:00,80.4,23.2,29.58,SW,221,13.0,16.0,12,0.00,,,0.00,VWS V14.01,2013-04-15 00:28:00,
2013-04-14 17:33:00,80.0,22.9,29.59,WNW,288,6.0,15.0,12,0.00,,,0.00,VWS V14.01,2013-04-15 00:33:00,
2013-04-14 17:38:00,79.5,24.4,29.59,SW,215,11.0,15.0,13,0.00,,,0.00,VWS V14.01,2013-04-15 00:38:00,
2013-04-14 17:43:00,79.2,24.2,29.59,SW,217,9.0,12.0,13,0.00,,,0.00,VWS V14.01,2013-04-15 00:43:00,
2013-04-14 17:48:00,79.1,24.1,29.59,SW,220,10.0,13.0,13,0.00,,,0.00,VWS V14.01,2013-04-15 00:48:00,
2013-04-14 17:53:00,79.0,24.0,29.59,SW,215,4.0,16.0,13,0.00,,,0.00,VWS V14.01,2013-04-15 00:53:00,
2013-04-14 17:58:00,78.5,23.6,29.59,West,259,8.0,13.0,13,0.00,,,0.00,VWS V14.01,2013-04-15 00:58:00,
2013-04-14 18:03:00,78.2,23.4,29.59,West,269,5.0,13.0,13,0.00,,,0.00,VWS V14.01,2013-04-15 01:03:00,
2013-04-14 18:08:00,77.9,23.1,29.60,SSW,213,9.0,20.0,13,0.00,,,0.00,VWS V14.01,2013-04-15 01:08:00,
2013-04-14 18:13:00,77.5,22.8,29.60,West,268,9.0,12.0,13,0.00,,,0.00,VWS V14.01,2013-04-15 01:13:00,
2013-04-14 18:18:00,77.2,22.6,29.60,SW,227,7.0,14.0,13,0.00,,,0.00,VWS V14.01,2013-04-15 01:18:00,
2013-04-14 18:24:00,76.9,24.1,29.59,SW,224,10.0,14.0,14,0.00,,,0.00,VWS V14.01,2013-04-15 01:24:00,
2013-04-14 18:29:00,76.5,23.8,29.60,West,263,13.0,15.0,14,0.00,,,0.00,VWS V14.01,2013-04-15 01:29:00,
2013-04-14 18:34:00,76.1,25.1,29.60,SSW,212,8.0,16.0,15,0.00,,,0.00,VWS V14.01,2013-04-15 01:34:00,
2013-04-14 18:39:00,75.7,24.8,29.60,SSW,213,9.0,12.0,15,0.00,,,0.00,VWS V14.01,2013-04-15 01:39:00,
2013-04-14 18:44:00,75.4,24.6,29.60,SW,218,4.0,11.0,15,0.00,,,0.00,VWS V14.01,2013-04-15 01:44:00,
2013-04-14 18:49:00,75.0,27.3,29.60,SW,234,7.0,14.0,17,0.00,,,0.00,VWS V14.01,2013-04-15 01:49:00,
2013-04-14 18:54:00,74.9,27.2,29.60,SSW,209,8.0,12.0,17,0.00,,,0.00,VWS V14.01,2013-04-15 01:54:00,
2013-04-14 18:59:00,74.7,25.6,29.60,SW,214,8.0,14.0,16,0.00,,,0.00,VWS V14.01,2013-04-15 01:59:00,
2013-04-14 19:04:00,74.4,25.3,29.60,SW,224,4.0,12.0,16,0.00,,,0.00,VWS V14.01,2013-04-15 02:04:00,
2013-04-14 19:09:00,74.0,25.0,29.60,SW,223,1.0,10.0,16,0.00,,,0.00,VWS V14.01,2013-04-15 02:09:00,
2013-04-14 19:14:00,73.7,27.6,29.61,SW,216,3.0,13.0,18,0.00,,,0.00,VWS V14.01,2013-04-15 02:14:00,
2013-04-14 19:19:00,73.4,27.4,29.61,SW,218,2.0,9.0,18,0.00,,,0.00,VWS V14.01,2013-04-15 02:19:00,
2013-04-14 19:24:00,73.4,28.7,29.61,SW,215,8.0,12.0,19,0.00,,,0.00,VWS V14.01,2013-04-15 02:24:00,
2013-04-14 19:29:00,73.3,28.6,29.61,SSW,205,5.0,12.0,19,0.00,,,0.00,VWS V14.01,2013-04-15 02:29:00,
2013-04-14 19:34:00,73.1,29.7,29.61,SW,221,6.0,12.0,20,0.00,,,0.00,VWS V14.01,2013-04-15 02:34:00,
2013-04-14 19:39:00,72.8,29.4,29.61,SW,222,1.0,10.0,20,0.00,,,0.00,VWS V14.01,2013-04-15 02:39:00,
2013-04-14 19:44:00,72.6,30.5,29.61,SSW,202,6.0,16.0,21,0.00,,,0.00,VWS V14.01,2013-04-15 02:44:00,
2013-04-14 19:49:00,72.5,31.5,29.61,SW,215,4.0,12.0,22,0.00,,,0.00,VWS V14.01,2013-04-15 02:49:00,
2013-04-14 19:54:00,72.3,31.4,29.61,SSW,212,9.0,15.0,22,0.00,,,0.00,VWS V14.01,2013-04-15 02:54:00,
2013-04-14 19:59:00,72.4,32.5,29.61,SSW,204,8.0,18.0,23,0.00,,,0.00,VWS V14.01,2013-04-15 02:59:00,
2013-04-14 20:04:00,72.4,32.5,29.62,SSW,205,16.0,16.0,23,0.00,,,0.00,VWS V14.01,2013-04-15 03:04:00,
2013-04-14 20:09:00,72.3,32.5,29.62,SSW,201,5.0,17.0,23,0.00,,,0.00,VWS V14.01,2013-04-15 03:09:00,
2013-04-14 20:14:00,72.1,33.3,29.62,SW,218,3.0,15.0,24,0.00,,,0.00,VWS V14.01,2013-04-15 03:14:00,
2013-04-14 20:19:00,71.7,33.0,29.62,SW,217,6.0,10.0,24,0.00,,,0.00,VWS V14.01,2013-04-15 03:19:00,
2013-04-14 20:24:00,71.6,34.0,29.63,SW,233,8.0,15.0,25,0.00,,,0.00,VWS V14.01,2013-04-15 03:24:00,
2013-04-14 20:29:00,71.4,34.8,29.63,SW,217,11.0,14.0,26,0.00,,,0.00,VWS V14.01,2013-04-15 03:29:00,
2013-04-14 20:34:00,71.1,34.5,29.63,SSW,198,6.0,14.0,26,0.00,,,0.00,VWS V14.01,2013-04-15 03:34:00,
2013-04-14 20:39:00,70.9,34.3,29.63,SSW,211,10.0,11.0,26,0.00,,,0.00,VWS V14.01,2013-04-15 03:39:00,
2013-04-14 20:44:00,70.9,35.3,29.64,SW,217,7.0,13.0,27,0.00,,,0.00,VWS V14.01,2013-04-15 03:44:00,
2013-04-14 20:49:00,70.8,35.2,29.63,SW,215,7.0,15.0,27,0.00,,,0.00,VWS V14.01,2013-04-15 03:49:00,
2013-04-14 20:54:00,70.7,35.1,29.64,South,177,12.0,18.0,27,0.00,,,0.00,VWS V14.01,2013-04-15 03:54:00,
2013-04-14 20:59:00,70.7,36.0,29.64,SSW,208,6.0,15.0,28,0.00,,,0.00,VWS V14.01,2013-04-15 03:59:00,
2013-04-14 21:04:00,70.6,35.9,29.64,SW,224,7.0,14.0,28,0.00,,,0.00,VWS V14.01,2013-04-15 04:04:00,
2013-04-14 21:06:00,70.5,35.9,29.64,SW,221,6.0,14.0,28,0.00,,,0.00,VWS V14.01,2013-04-15 04:06:00,
2013-04-14 21:09:00,70.4,36.7,29.64,SSW,213,9.0,12.0,29,0.00,,,0.00,VWS V14.01,2013-04-15 04:09:00,
2013-04-14 21:14:00,70.4,36.7,29.64,SW,220,11.0,16.0,29,0.00,,,0.00,VWS V14.01,2013-04-15 04:14:00,
2013-04-14 21:19:00,70.3,36.6,29.64,SW,219,7.0,13.0,29,0.00,,,0.00,VWS V14.01,2013-04-15 04:19:00,
2013-04-14 21:24:00,70.1,37.3,29.64,SSW,211,9.0,15.0,30,0.00,,,0.00,VWS V14.01,2013-04-15 04:24:00,
2013-04-14 21:29:00,69.9,37.1,29.64,South,185,12.0,13.0,30,0.00,,,0.00,VWS V14.01,2013-04-15 04:29:00,
2013-04-14 21:34:00,69.8,37.0,29.65,SSW,192,6.0,14.0,30,0.00,,,0.00,VWS V14.01,2013-04-15 04:34:00,
2013-04-14 21:39:00,69.7,36.0,29.65,SW,218,6.0,15.0,29,0.00,,,0.00,VWS V14.01,2013-04-15 04:39:00,
2013-04-14 21:44:00,69.7,35.2,29.65,SSW,212,7.0,16.0,28,0.00,,,0.00,VWS V14.01,2013-04-15 04:44:00,
2013-04-14 21:49:00,69.8,34.3,29.65,SSW,210,14.0,19.0,27,0.00,,,0.00,VWS V14.01,2013-04-15 04:49:00,
2013-04-14 21:54:00,69.7,34.3,29.65,SW,226,13.0,14.0,27,0.00,,,0.00,VWS V14.01,2013-04-15 04:54:00,
2013-04-14 21:59:00,69.5,34.1,29.65,South,191,8.0,15.0,27,0.00,,,0.00,VWS V14.01,2013-04-15 04:59:00,
2013-04-14 22:04:00,69.4,33.1,29.65,SW,214,11.0,16.0,26,0.00,,,0.00,VWS V14.01,2013-04-15 05:04:00,
2013-04-14 22:09:00,69.3,33.0,29.65,SSW,211,10.0,20.0,26,0.00,,,0.00,VWS V14.01,2013-04-15 05:09:00,
2013-04-14 22:14:00,69.0,32.7,29.65,SW,226,6.0,14.0,26,0.00,,,0.00,VWS V14.01,2013-04-15 05:14:00,
2013-04-14 22:19:00,68.6,32.4,29.65,SW,229,9.0,15.0,26,0.00,,,0.00,VWS V14.01,2013-04-15 05:19:00,
2013-04-14 22:24:00,68.4,32.2,29.65,South,182,10.0,20.0,26,0.00,,,0.00,VWS V14.01,2013-04-15 05:24:00,
2013-04-14 22:29:00,68.3,32.1,29.65,South,188,12.0,19.0,26,0.00,,,0.00,VWS V14.01,2013-04-15 05:29:00,
2013-04-14 22:34:00,68.3,31.1,29.65,SSW,209,5.0,21.0,25,0.00,,,0.00,VWS V14.01,2013-04-15 05:34:00,
2013-04-14 22:39:00,68.3,31.1,29.65,SW,215,18.0,22.0,25,0.00,,,0.00,VWS V14.01,2013-04-15 05:39:00,
2013-04-14 22:44:00,68.0,30.9,29.65,SSE,153,9.0,15.0,25,0.00,,,0.00,VWS V14.01,2013-04-15 05:44:00,
2013-04-14 22:49:00,67.8,30.7,29.65,SSW,207,10.0,18.0,25,0.00,,,0.00,VWS V14.01,2013-04-15 05:49:00,
2013-04-14 22:54:00,67.6,30.6,29.65,SSW,213,19.0,23.0,25,0.00,,,0.00,VWS V14.01,2013-04-15 05:54:00,
2013-04-14 22:59:00,67.4,30.4,29.65,SSW,195,7.0,19.0,25,0.00,,,0.00,VWS V14.01,2013-04-15 05:59:00,
2013-04-14 23:04:00,67.3,30.3,29.65,SW,218,16.0,19.0,25,0.00,,,0.00,VWS V14.01,2013-04-15 06:04:00,
2013-04-14 23:09:00,67.2,30.2,29.65,SSW,209,11.0,20.0,25,0.00,,,0.00,VWS V14.01,2013-04-15 06:09:00,
2013-04-14 23:14:00,66.9,30.0,29.65,SW,223,13.0,16.0,25,0.00,,,0.00,VWS V14.01,2013-04-15 06:14:00,
2013-04-14 23:19:00,66.6,29.7,29.65,SW,222,9.0,15.0,25,0.00,,,0.00,VWS V14.01,2013-04-15 06:19:00,
2013-04-14 23:24:00,66.3,29.5,29.64,SW,228,6.0,13.0,25,0.00,,,0.00,VWS V14.01,2013-04-15 06:24:00,
2013-04-14 23:29:00,66.1,29.3,29.65,SSW,209,9.0,14.0,25,0.00,,,0.00,VWS V14.01,2013-04-15 06:29:00,
2013-04-14 23:34:00,65.6,29.8,29.65,SW,217,6.0,8.0,26,0.00,,,0.00,VWS V14.01,2013-04-15 06:34:00,
2013-04-14 23:39:00,65.4,29.6,29.65,SW,220,8.0,10.0,26,0.00,,,0.00,VWS V14.01,2013-04-15 06:39:00,
2013-04-14 23:44:00,65.1,29.4,29.65,SW,219,5.0,9.0,26,0.00,,,0.00,VWS V14.01,2013-04-15 06:44:00,
2013-04-14 23:49:00,64.7,29.0,29.65,SW,225,4.0,7.0,26,0.00,,,0.00,VWS V14.01,2013-04-15 06:49:00,
2013-04-14 23:54:00,64.4,29.7,29.65,SW,234,2.0,8.0,27,0.00,,,0.00,VWS V14.01,2013-04-15 06:54:00,
2013-04-14 23:59:00,64.4,30.6,29.65,SW,225,1.0,8.0,28,0.00,,,0.00,VWS V14.01,2013-04-15 06:59:00,